Regional Weather Roundup
Issued by NWS Newport/Morehead, NC

Current Version | Previous Version | Text Only | Print | Product List | Glossary On
Versions: 1 2 3 4 5 6 7 8 9 10 11 12 13 14 15 16 17 18 19 20 21 22 23 24 25 26 27 28 29 30 31 32 33 34 35 36 37 38 39 40 41 42 43 44 45 46 47 48 49 50
000
ASUS42 KMHX 271925
RWRMHX
WEATHER ROUNDUP FOR EASTERN NORTH CAROLINA
NATIONAL WEATHER SERVICE NEWPORT/MOREHEAD CITY NC
300 PM EDT MON JUL 27 2015

NOTE: "FAIR" INDICATES FEW OR NO CLOUDS BELOW 12,000 FEET
WITH NO SIGNIFICANT WEATHER AND/OR OBSTRUCTIONS TO VISIBILITY

NCZ015>017-031-032-045>047-102-103-272000-
NORTH COAST

CITY           SKY/WX    TMP DP  RH WIND       PRES   REMARKS
EDENTON          N/A     85  70  60 S5        30.00F
ELIZABETH CITY PTSUNNY   86  71  60 SE8       30.01F
KITTY HAWK     CLOUDY    88  69  54 SE6       30.01S
MANTEO         CLOUDY    83  70  65 S8        30.02F

$$

NCZ045>047-081-094-103-104-272000-
CENTRAL COAST

CITY           SKY/WX    TMP DP  RH WIND       PRES   REMARKS
FRISCO         PTSUNNY   86  72  62 S7        30.02F
SWANQUARTER      N/A     84 N/A N/A SE7       29.97S

$$

NCZ095-097-098-100-101-272000-
SOUTHERN COAST

CITY           SKY/WX    TMP DP  RH WIND       PRES   REMARKS
BEAUFORT       MOSUNNY   85  73  67 SE12      30.01S
CEDAR ISLAND     N/A     84 N/A N/A E9        30.06S
JACKSONVILLE   MOSUNNY   87  71  58 SE9       29.99F
PINEY ISLAND   PTCLDY   N/A N/A N/A E9        30.01F
WILMINGTON     MOSUNNY   87  74  64 E9        30.00S


$$

NCZ011>013-027>030-043-044-078>080-089-090>093-098-272000-
COASTAL PLAIN

CITY           SKY/WX    TMP DP  RH WIND       PRES   REMARKS
AHOSKIE        PTSUNNY   85  69  58 SW3       30.01F
CLINTON        MOSUNNY   90  73  58 E3        29.99S
ELIZABETHTOWN  HVY RAIN  82  74  76 SE9       29.98S
GOLDSBORO      MOSUNNY   89  70  52 E7        29.97F
GREENVILLE     PTSUNNY   88  70  55 E7        30.01F
HAVELOCK       MOSUNNY   87  71  58 E12       30.01F
KENANSVILLE    MOSUNNY   89  68  49 CALM      30.00F
KINSTON        PTSUNNY   90  68  48 CALM      30.00F
NEW BERN       MOSUNNY   88  69  53 SE7       30.00F
RICHLANDS      PTSUNNY   90  68  48 NE6       29.98F
ROCKY MOUNT    PTSUNNY   89  71  55 S7        30.00F
WASHINGTON     PTSUNNY   86  70  58 E6        30.00F
WHITEVILLE     MOSUNNY   89  73  58 S7        29.97F

$$

AMZ130-135-150-152-154-156-158-170-250-252-270-ANZ085-086-088-633-658-670-272000-
MARINE OBSERVATIONS

STATION/POSITION TIME  TEMP    WIND        PRES    WAVE   SWELL
                       AIR SEA DIR/SP/G            HT/PER HT/PER
                 (UTC) (F)     (DEG/KT/KT) (MB)    (FT/S) (FT/S)
CHESAPEAKE LIGHT 1900   80     180/ 10/ 11 1016.9
64 E VA BEACH    1850   80 80  170/  4/  6 1016.7    2/11   2/11
DUCK             1900   82 81  140/  8/  9 1015.5
2 E DUCK         1841      81                N/A     2/11   2/11
OREGON INLET     1900   83 83  150/  5/  9 1016.5
13E OREGON INLT  1900      80                N/A     3/11   2/11
HATTERAS CG      1900   83 82  150/  7/  9 1016.2
DIAMOND BUOY     NOT AVBL
CAPE LOOKOUT     1900   82     100/  9/ 10 1015.8
BEAUFORT LAB     1900   82 81  120/ 11/ 12 1015.5
30 SE NEW RVR IN NOT AVBL
27 SE WRIGHTSVLE 1900      82  100/ 12/ 14   N/A
5 SE WRIGHTSVLE  1808   82 81  110/ 12/ 16 1015.6
225 S CAPE HAT   1850   77 82  240/  2/  4 1016.8    4/ 6   3/ 6
41 SE CHARLESTON 1850   83 85   40/  4/  6 1013.6    2/ 6   2/ 6

$$


USA.gov is the U.S. government's official web portal to all federal, state and local government web resources and services.